Location: Lombard
(41.8800°N, 88.0080°W)
Time: 05:37:08
(UTC-05:00)

Vanguard 2 Rocket - Pass Details

Date: 29 February 2024
Orbit: 555 x 3307 km, 32.9° (Epoch: 12 April)

Event Time Altitude Azimuth Distance (km) Brightness Sun altitude
Rises 20:56:42 0° 268° (W) 6,422 12.0 -36.2°
Reaches altitude 10° 21:04:42 10° 245° (WSW) 5,894 11.3 -37.5°
Maximum altitude 21:11:28 13° 223° (SW) 5,880 11.1 -38.6°
Drops below altitude 10° 21:18:39 10° 202° (SSW) 6,252 11.0 -39.8°
Enters shadow 21:27:30 - 180° (S) 7,086 11.2 -41.2°
Sets 21:28:07 0° 179° (S) 7,155 - -41.3°
